Year,Month,Day,Hour,Minute,Value (Times are PST for temperature in C)
2015,07,01,00,00,19.90
2015,07,01,00,01,19.90
2015,07,01,00,02,19.90
2015,07,01,00,03,19.90
2015,07,01,00,04,19.80
2015,07,01,00,05,19.80
2015,07,01,00,06,19.80
2015,07,01,00,07,19.80
2015,07,01,00,08,19.80
2015,07,01,00,09,19.80
2015,07,01,00,10,19.80
2015,07,01,00,11,19.80
2015,07,01,00,12,19.90
2015,07,01,00,13,19.90
2015,07,01,00,14,19.90
2015,07,01,00,15,19.90
2015,07,01,00,16,19.90
2015,07,01,00,17,19.90
2015,07,01,00,18,19.90
2015,07,01,00,19,19.90
2015,07,01,00,20,19.90
2015,07,01,00,21,19.90
2015,07,01,00,22,19.80
2015,07,01,00,23,19.80
2015,07,01,00,24,19.80
2015,07,01,00,25,19.80
2015,07,01,00,26,19.80
2015,07,01,00,27,19.80
2015,07,01,00,28,19.80
2015,07,01,00,29,19.80
2015,07,01,00,30,19.80
2015,07,01,00,31,19.80
2015,07,01,00,32,19.80
2015,07,01,00,33,19.80
2015,07,01,00,34,19.80
2015,07,01,00,35,19.80
2015,07,01,00,36,19.80
2015,07,01,00,37,19.80
2015,07,01,00,38,19.80
2015,07,01,00,39,19.80
2015,07,01,00,40,19.80
2015,07,01,00,41,19.80
2015,07,01,00,42,19.80
2015,07,01,00,43,19.80
2015,07,01,00,44,19.90
2015,07,01,00,45,19.90
2015,07,01,00,46,19.90
2015,07,01,00,47,19.90
2015,07,01,00,48,19.90
2015,07,01,00,49,19.90
2015,07,01,00,50,19.90
2015,07,01,00,51,19.90
2015,07,01,00,52,19.90
2015,07,01,00,53,19.80
2015,07,01,00,54,19.80
2015,07,01,00,55,19.80
2015,07,01,00,56,19.80
2015,07,01,00,57,19.80
2015,07,01,00,58,19.80
2015,07,01,00,59,19.80
2015,07,01,01,00,19.80
2015,07,01,01,01,19.70
2015,07,01,01,02,19.70
2015,07,01,01,03,19.70
2015,07,01,01,04,19.70
2015,07,01,01,05,19.60
2015,07,01,01,06,19.60
2015,07,01,01,07,19.60
2015,07,01,01,08,19.50
2015,07,01,01,09,19.50
2015,07,01,01,10,19.50
2015,07,01,01,11,19.40
2015,07,01,01,12,19.40
2015,07,01,01,13,19.40
2015,07,01,01,14,19.40
2015,07,01,01,15,19.30
2015,07,01,01,16,19.30
2015,07,01,01,17,19.30
2015,07,01,01,18,19.30
2015,07,01,01,19,19.30
2015,07,01,01,20,19.30
2015,07,01,01,21,19.30
2015,07,01,01,22,19.30
2015,07,01,01,23,19.30
2015,07,01,01,24,19.30
2015,07,01,01,25,19.30
2015,07,01,01,26,19.30
2015,07,01,01,27,19.30
2015,07,01,01,28,19.30
2015,07,01,01,29,19.30
2015,07,01,01,30,19.30
2015,07,01,01,31,19.30
2015,07,01,01,32,19.30
2015,07,01,01,33,19.30
2015,07,01,01,34,19.30
2015,07,01,01,35,19.30
2015,07,01,01,36,19.30
2015,07,01,01,37,19.20
2015,07,01,01,38,19.20
2015,07,01,01,39,19.20
2015,07,01,01,40,19.20
2015,07,01,01,41,19.20
2015,07,01,01,42,19.20
2015,07,01,01,43,19.10
2015,07,01,01,44,19.10
2015,07,01,01,45,19.10
2015,07,01,01,46,19.10
2015,07,01,01,47,19.10
2015,07,01,01,48,19.00
2015,07,01,01,49,19.00
2015,07,01,01,50,19.00
2015,07,01,01,51,19.00
2015,07,01,01,52,18.90
2015,07,01,01,53,18.90
2015,07,01,01,54,18.90
2015,07,01,01,55,18.90
2015,07,01,01,56,18.90
2015,07,01,01,57,18.80
2015,07,01,01,58,18.80
2015,07,01,01,59,18.80
2015,07,01,02,00,18.80
2015,07,01,02,01,18.70
2015,07,01,02,02,18.70
2015,07,01,02,03,18.70
2015,07,01,02,04,18.60
2015,07,01,02,05,18.60
2015,07,01,02,06,18.60
2015,07,01,02,07,18.60
2015,07,01,02,08,18.60
2015,07,01,02,09,18.50
2015,07,01,02,10,18.50
2015,07,01,02,11,18.50
2015,07,01,02,12,18.40
2015,07,01,02,13,18.40
2015,07,01,02,14,18.40
2015,07,01,02,15,18.40
2015,07,01,02,16,18.40
2015,07,01,02,17,18.30
2015,07,01,02,18,18.30
2015,07,01,02,19,18.30
2015,07,01,02,20,18.30
2015,07,01,02,21,18.30
2015,07,01,02,22,18.30
2015,07,01,02,23,18.20
2015,07,01,02,24,18.20
2015,07,01,02,25,18.20
2015,07,01,02,26,18.20
2015,07,01,02,27,18.20
2015,07,01,02,28,18.20
2015,07,01,02,29,18.20
2015,07,01,02,30,18.20
2015,07,01,02,31,18.20
2015,07,01,02,32,18.20
2015,07,01,02,33,18.20
2015,07,01,02,34,18.10
2015,07,01,02,35,18.10
2015,07,01,02,36,18.10
2015,07,01,02,37,18.10
2015,07,01,02,38,18.10
2015,07,01,02,39,18.10
2015,07,01,02,40,18.00
2015,07,01,02,41,18.00
2015,07,01,02,42,18.00
2015,07,01,02,43,18.00
2015,07,01,02,44,17.90
2015,07,01,02,45,17.90
2015,07,01,02,46,17.90
2015,07,01,02,47,17.90
2015,07,01,02,48,17.90
2015,07,01,02,49,18.00
2015,07,01,02,50,18.00
2015,07,01,02,51,18.00
2015,07,01,02,52,18.00
2015,07,01,02,53,18.10
2015,07,01,02,54,18.10
2015,07,01,02,55,18.10
2015,07,01,02,56,18.00
2015,07,01,02,57,18.00
2015,07,01,02,58,18.00
2015,07,01,02,59,18.00
2015,07,01,03,00,18.00
2015,07,01,03,01,17.90
2015,07,01,03,02,17.90
2015,07,01,03,03,17.90
2015,07,01,03,04,17.90
2015,07,01,03,05,17.90
2015,07,01,03,06,17.90
2015,07,01,03,07,17.90
2015,07,01,03,08,17.90
2015,07,01,03,09,17.90
2015,07,01,03,10,17.80
2015,07,01,03,11,17.80
2015,07,01,03,12,17.80
2015,07,01,03,13,17.80
2015,07,01,03,14,17.80
2015,07,01,03,15,17.80
2015,07,01,03,16,17.80
2015,07,01,03,17,17.80
2015,07,01,03,18,17.80
2015,07,01,03,19,17.80
2015,07,01,03,20,17.80
2015,07,01,03,21,17.70
2015,07,01,03,22,17.70
2015,07,01,03,23,17.70
2015,07,01,03,24,17.70
2015,07,01,03,25,17.70
2015,07,01,03,26,17.70
2015,07,01,03,27,17.70
2015,07,01,03,28,17.70
2015,07,01,03,29,17.70
2015,07,01,03,30,17.70
2015,07,01,03,31,17.70
2015,07,01,03,32,17.70
2015,07,01,03,33,17.70
2015,07,01,03,34,17.70
2015,07,01,03,35,17.70
2015,07,01,03,36,17.70
2015,07,01,03,37,17.70
2015,07,01,03,38,17.70
2015,07,01,03,39,17.70
2015,07,01,03,40,17.70
2015,07,01,03,41,17.70
2015,07,01,03,42,17.70
2015,07,01,03,43,17.70
2015,07,01,03,44,17.60
2015,07,01,03,45,17.60
2015,07,01,03,46,17.60
2015,07,01,03,47,17.60
2015,07,01,03,48,17.60
2015,07,01,03,49,17.60
2015,07,01,03,50,17.60
2015,07,01,03,51,17.60
2015,07,01,03,52,17.60
2015,07,01,03,53,17.60
2015,07,01,03,54,17.60
2015,07,01,03,55,17.60
2015,07,01,03,56,17.60
2015,07,01,03,57,17.60
2015,07,01,03,58,17.50
2015,07,01,03,59,17.50
2015,07,01,04,00,17.50
2015,07,01,04,01,17.50
2015,07,01,04,02,17.40
2015,07,01,04,03,17.40
2015,07,01,04,04,17.40
2015,07,01,04,05,17.40
2015,07,01,04,06,17.40
2015,07,01,04,07,17.40
2015,07,01,04,08,17.40
2015,07,01,04,09,17.30
2015,07,01,04,10,17.30
2015,07,01,04,11,17.30
2015,07,01,04,12,17.30
2015,07,01,04,13,17.30
2015,07,01,04,14,17.30
2015,07,01,04,15,17.30
2015,07,01,04,16,17.20
2015,07,01,04,17,17.20
2015,07,01,04,18,17.20
2015,07,01,04,19,17.20
2015,07,01,04,20,17.20
2015,07,01,04,21,17.20
2015,07,01,04,22,17.20
2015,07,01,04,23,17.20
2015,07,01,04,24,17.20
2015,07,01,04,25,17.20
2015,07,01,04,26,17.20
2015,07,01,04,27,17.20
2015,07,01,04,28,17.20
2015,07,01,04,29,17.20
2015,07,01,04,30,17.20
2015,07,01,04,31,17.20
2015,07,01,04,32,17.20
2015,07,01,04,33,17.30
2015,07,01,04,34,17.30
2015,07,01,04,35,17.30
2015,07,01,04,36,17.30
2015,07,01,04,37,17.30
2015,07,01,04,38,17.30
2015,07,01,04,39,17.30
2015,07,01,04,40,17.30
2015,07,01,04,41,17.40
2015,07,01,04,42,17.40
2015,07,01,04,43,17.40
2015,07,01,04,44,17.50
2015,07,01,04,45,17.50
2015,07,01,04,46,17.50
2015,07,01,04,47,17.50
2015,07,01,04,48,17.50
2015,07,01,04,49,17.50
2015,07,01,04,50,17.50
2015,07,01,04,51,17.50
2015,07,01,04,52,17.50
2015,07,01,04,53,17.50
2015,07,01,04,54,17.50
2015,07,01,04,55,17.50
2015,07,01,04,56,17.50
2015,07,01,04,57,17.50
2015,07,01,04,58,17.50
2015,07,01,04,59,17.50
2015,07,01,05,00,17.50
2015,07,01,05,01,17.50
2015,07,01,05,02,17.50
2015,07,01,05,03,17.50
2015,07,01,05,04,17.50
2015,07,01,05,05,17.40
2015,07,01,05,06,17.40
2015,07,01,05,07,17.40
2015,07,01,05,08,17.40
2015,07,01,05,09,17.30
2015,07,01,05,10,17.30
2015,07,01,05,11,17.30
2015,07,01,05,12,17.30
2015,07,01,05,13,17.30
2015,07,01,05,14,17.30
2015,07,01,05,15,17.30
2015,07,01,05,16,17.30
2015,07,01,05,17,17.30
2015,07,01,05,18,17.30
2015,07,01,05,19,17.30
2015,07,01,05,20,17.30
2015,07,01,05,21,17.30
2015,07,01,05,22,17.20
2015,07,01,05,23,17.20
2015,07,01,05,24,17.20
2015,07,01,05,25,17.20
2015,07,01,05,26,17.20
2015,07,01,05,27,17.20
2015,07,01,05,28,17.20
2015,07,01,05,29,17.20
2015,07,01,05,30,17.20
2015,07,01,05,31,17.20
2015,07,01,05,32,17.20
2015,07,01,05,33,17.20
2015,07,01,05,34,17.30
2015,07,01,05,35,17.30
2015,07,01,05,36,17.20
2015,07,01,05,37,17.20
2015,07,01,05,38,17.20
2015,07,01,05,39,17.20
2015,07,01,05,40,17.20
2015,07,01,05,41,17.20
2015,07,01,05,42,17.20
2015,07,01,05,43,17.20
2015,07,01,05,44,17.20
2015,07,01,05,45,17.20
2015,07,01,05,46,17.20
2015,07,01,05,47,17.20
2015,07,01,05,48,17.20
2015,07,01,05,49,17.20
2015,07,01,05,50,17.10
2015,07,01,05,51,17.10
2015,07,01,05,52,17.10
2015,07,01,05,53,17.10
2015,07,01,05,54,17.10
2015,07,01,05,55,17.10
2015,07,01,05,56,17.10
2015,07,01,05,57,17.10
2015,07,01,05,58,17.10
2015,07,01,05,59,17.10
2015,07,01,06,00,17.10
2015,07,01,06,01,17.10
2015,07,01,06,02,17.10
2015,07,01,06,03,17.10
2015,07,01,06,04,17.10
2015,07,01,06,05,17.10
2015,07,01,06,06,17.10
2015,07,01,06,07,17.10
2015,07,01,06,08,17.10
2015,07,01,06,09,17.10
2015,07,01,06,10,17.10
2015,07,01,06,11,17.10
2015,07,01,06,12,17.20
2015,07,01,06,13,17.20
2015,07,01,06,14,17.20
2015,07,01,06,15,17.20
2015,07,01,06,16,17.20
2015,07,01,06,17,17.20
2015,07,01,06,18,17.20
2015,07,01,06,19,17.20
2015,07,01,06,20,17.20
2015,07,01,06,21,17.20
2015,07,01,06,22,17.20
2015,07,01,06,23,17.30
2015,07,01,06,24,17.30
2015,07,01,06,25,17.30
2015,07,01,06,26,17.30
2015,07,01,06,27,17.30
2015,07,01,06,28,17.30
2015,07,01,06,29,17.30
2015,07,01,06,30,17.30
2015,07,01,06,31,17.30
2015,07,01,06,32,17.30
2015,07,01,06,33,17.30
2015,07,01,06,34,17.30
2015,07,01,06,35,17.30
2015,07,01,06,36,17.40
2015,07,01,06,37,17.40
2015,07,01,06,38,17.40
2015,07,01,06,39,17.30
2015,07,01,06,40,17.30
2015,07,01,06,41,17.30
2015,07,01,06,42,17.30
2015,07,01,06,43,17.30
2015,07,01,06,44,17.30
2015,07,01,06,45,17.30
2015,07,01,06,46,17.30
2015,07,01,06,47,17.30
2015,07,01,06,48,17.40
2015,07,01,06,49,17.40
2015,07,01,06,50,17.40
2015,07,01,06,51,17.40
2015,07,01,06,52,17.40
2015,07,01,06,53,17.40
2015,07,01,06,54,17.40
2015,07,01,06,55,17.40
2015,07,01,06,56,17.40
2015,07,01,06,57,17.40
2015,07,01,06,58,17.40
2015,07,01,06,59,17.50
2015,07,01,07,00,17.50
2015,07,01,07,01,17.50
2015,07,01,07,02,17.60
2015,07,01,07,03,17.60
2015,07,01,07,04,17.60
2015,07,01,07,05,17.60
2015,07,01,07,06,17.60
2015,07,01,07,07,17.60
2015,07,01,07,08,17.70
2015,07,01,07,09,17.70
2015,07,01,07,10,17.70
2015,07,01,07,11,17.70
2015,07,01,07,12,17.70
2015,07,01,07,13,17.80
2015,07,01,07,14,17.80
2015,07,01,07,15,17.80
2015,07,01,07,16,17.80
2015,07,01,07,17,17.80
2015,07,01,07,18,17.80
2015,07,01,07,19,17.80
2015,07,01,07,20,17.80
2015,07,01,07,21,17.80
2015,07,01,07,22,17.90
2015,07,01,07,23,17.90
2015,07,01,07,24,17.90
2015,07,01,07,25,17.90
2015,07,01,07,26,18.00
2015,07,01,07,27,18.00
2015,07,01,07,28,18.00
2015,07,01,07,29,18.00
2015,07,01,07,30,18.00
2015,07,01,07,31,18.00
2015,07,01,07,32,18.00
2015,07,01,07,33,18.00
2015,07,01,07,34,18.00
2015,07,01,07,35,18.00
2015,07,01,07,36,18.00
2015,07,01,07,37,18.10
2015,07,01,07,38,18.10
2015,07,01,07,39,18.10
2015,07,01,07,40,18.10
2015,07,01,07,41,18.20
2015,07,01,07,42,18.20
2015,07,01,07,43,18.20
2015,07,01,07,44,18.20
2015,07,01,07,45,18.20
2015,07,01,07,46,18.30
2015,07,01,07,47,18.30
2015,07,01,07,48,18.30
2015,07,01,07,49,18.30
2015,07,01,07,50,18.30
2015,07,01,07,51,18.40
2015,07,01,07,52,18.40
2015,07,01,07,53,18.40
2015,07,01,07,54,18.40
2015,07,01,07,55,18.40
2015,07,01,07,56,18.40
2015,07,01,07,57,18.40
2015,07,01,07,58,18.40
2015,07,01,07,59,18.50
2015,07,01,08,00,18.50
2015,07,01,08,01,18.40
2015,07,01,08,02,18.40
2015,07,01,08,03,18.50
2015,07,01,08,04,18.40
2015,07,01,08,05,18.40
2015,07,01,08,06,18.40
2015,07,01,08,07,18.40
2015,07,01,08,08,18.40
2015,07,01,08,09,18.40
2015,07,01,08,10,18.50
2015,07,01,08,11,18.50
2015,07,01,08,12,18.50
2015,07,01,08,13,18.60
2015,07,01,08,14,18.60
2015,07,01,08,15,18.60
2015,07,01,08,16,18.60
2015,07,01,08,17,18.60
2015,07,01,08,18,18.60
2015,07,01,08,19,18.70
2015,07,01,08,20,18.70
2015,07,01,08,21,18.70
2015,07,01,08,22,18.80
2015,07,01,08,23,18.80
2015,07,01,08,24,18.80
2015,07,01,08,25,18.80
2015,07,01,08,26,18.90
2015,07,01,08,27,18.90
2015,07,01,08,28,18.90
2015,07,01,08,29,19.00
2015,07,01,08,30,19.00
2015,07,01,08,31,19.10
2015,07,01,08,32,19.10
2015,07,01,08,33,19.10
2015,07,01,08,34,19.20
2015,07,01,08,35,19.30
2015,07,01,08,36,19.30
2015,07,01,08,37,19.30
2015,07,01,08,38,19.30
2015,07,01,08,39,19.40
2015,07,01,08,40,19.40
2015,07,01,08,41,19.50
2015,07,01,08,42,19.50
2015,07,01,08,43,19.50
2015,07,01,08,44,19.50
2015,07,01,08,45,19.60
2015,07,01,08,46,19.70
2015,07,01,08,47,19.80
2015,07,01,08,48,19.80
2015,07,01,08,49,19.90
2015,07,01,08,50,19.90
2015,07,01,08,51,20.00
2015,07,01,08,52,20.00
2015,07,01,08,53,20.00
2015,07,01,08,54,20.10
2015,07,01,08,55,20.10
2015,07,01,08,56,20.20
2015,07,01,08,57,20.20
2015,07,01,08,58,20.20
2015,07,01,08,59,20.30
2015,07,01,09,00,20.30
2015,07,01,09,01,20.30
2015,07,01,09,02,20.40
2015,07,01,09,03,20.40
2015,07,01,09,04,20.40
2015,07,01,09,05,20.40
2015,07,01,09,06,20.30
2015,07,01,09,07,20.30
2015,07,01,09,08,20.30
2015,07,01,09,09,20.40
2015,07,01,09,10,20.40
2015,07,01,09,11,20.40
2015,07,01,09,12,20.40
2015,07,01,09,13,20.40
2015,07,01,09,14,20.50
2015,07,01,09,15,20.50
2015,07,01,09,16,20.50
2015,07,01,09,17,20.40
2015,07,01,09,18,20.40
2015,07,01,09,19,20.30
2015,07,01,09,20,20.30
2015,07,01,09,21,20.20
2015,07,01,09,22,20.20
2015,07,01,09,23,20.20
2015,07,01,09,24,20.20
2015,07,01,09,25,20.20
2015,07,01,09,26,20.30
2015,07,01,09,27,20.20
2015,07,01,09,28,20.20
2015,07,01,09,29,20.20
2015,07,01,09,30,20.20
2015,07,01,09,31,20.20
2015,07,01,09,32,20.20
2015,07,01,09,33,20.20
2015,07,01,09,34,20.20
2015,07,01,09,35,20.20
2015,07,01,09,36,20.20
2015,07,01,09,37,20.20
2015,07,01,09,38,20.20
2015,07,01,09,39,20.20
2015,07,01,09,40,20.20
2015,07,01,09,41,20.20
2015,07,01,09,42,20.20
2015,07,01,09,43,20.30
2015,07,01,09,44,20.40
2015,07,01,09,45,20.40
2015,07,01,09,46,20.50
2015,07,01,09,47,20.50
2015,07,01,09,48,20.60
2015,07,01,09,49,20.70
2015,07,01,09,50,20.80
2015,07,01,09,51,20.90
2015,07,01,09,52,20.90
2015,07,01,09,53,21.00
2015,07,01,09,54,21.00
2015,07,01,09,55,21.10
2015,07,01,09,56,21.10
2015,07,01,09,57,21.30
2015,07,01,09,58,21.30
2015,07,01,09,59,21.40
2015,07,01,10,00,21.50
2015,07,01,10,01,21.60
2015,07,01,10,02,21.60
2015,07,01,10,03,21.60
2015,07,01,10,04,21.60
2015,07,01,10,05,21.70
2015,07,01,10,06,21.70
2015,07,01,10,07,21.80
2015,07,01,10,08,21.80
2015,07,01,10,09,21.80
2015,07,01,10,10,21.80
2015,07,01,10,11,21.80
2015,07,01,10,12,21.80
2015,07,01,10,13,21.70
2015,07,01,10,14,21.60
2015,07,01,10,15,21.60
2015,07,01,10,16,21.60
2015,07,01,10,17,21.60
2015,07,01,10,18,21.70
2015,07,01,10,19,21.70
2015,07,01,10,20,21.70
2015,07,01,10,21,21.80
2015,07,01,10,22,21.80
2015,07,01,10,23,21.70
2015,07,01,10,24,21.70
2015,07,01,10,25,21.60
2015,07,01,10,26,21.60
2015,07,01,10,27,21.60
2015,07,01,10,28,21.60
2015,07,01,10,29,21.60
2015,07,01,10,30,21.60
2015,07,01,10,31,21.60
2015,07,01,10,32,21.70
2015,07,01,10,33,21.70
2015,07,01,10,34,21.60
2015,07,01,10,35,21.50
2015,07,01,10,36,21.40
2015,07,01,10,37,21.30
2015,07,01,10,38,21.30
2015,07,01,10,39,21.30
2015,07,01,10,40,21.30
2015,07,01,10,41,21.30
2015,07,01,10,42,21.30
2015,07,01,10,43,21.30
2015,07,01,10,44,21.30
2015,07,01,10,45,21.30
2015,07,01,10,46,21.20
2015,07,01,10,47,21.20
2015,07,01,10,48,21.20
2015,07,01,10,49,21.20
2015,07,01,10,50,21.20
2015,07,01,10,51,21.20
2015,07,01,10,52,21.20
2015,07,01,10,53,21.20
2015,07,01,10,54,21.20
2015,07,01,10,55,21.30
2015,07,01,10,56,21.30
2015,07,01,10,57,21.30
2015,07,01,10,58,21.30
2015,07,01,10,59,21.30
2015,07,01,11,00,21.30
2015,07,01,11,01,21.30
2015,07,01,11,02,21.40
2015,07,01,11,03,21.40
2015,07,01,11,04,21.40
2015,07,01,11,05,21.40
2015,07,01,11,06,21.40
2015,07,01,11,07,21.40
2015,07,01,11,08,21.40
2015,07,01,11,09,21.40
2015,07,01,11,10,21.40
2015,07,01,11,11,21.40
2015,07,01,11,12,21.50
2015,07,01,11,13,21.60
2015,07,01,11,14,21.60
2015,07,01,11,15,21.70
2015,07,01,11,16,21.70
2015,07,01,11,17,21.70
2015,07,01,11,18,21.70
2015,07,01,11,19,21.80
2015,07,01,11,20,21.90
2015,07,01,11,21,22.00
2015,07,01,11,22,22.10
2015,07,01,11,23,22.10
2015,07,01,11,24,22.20
2015,07,01,11,25,22.20
2015,07,01,11,26,22.20
2015,07,01,11,27,22.20
2015,07,01,11,28,22.20
2015,07,01,11,29,22.20
2015,07,01,11,30,22.30
2015,07,01,11,31,22.30
2015,07,01,11,32,22.40
2015,07,01,11,33,22.50
2015,07,01,11,34,22.60
2015,07,01,11,35,22.60
2015,07,01,11,36,22.70
2015,07,01,11,37,22.80
2015,07,01,11,38,22.80
2015,07,01,11,39,22.90
2015,07,01,11,40,22.90
2015,07,01,11,41,23.00
2015,07,01,11,42,23.00
2015,07,01,11,43,23.00
2015,07,01,11,44,23.00
2015,07,01,11,45,23.00
2015,07,01,11,46,23.00
2015,07,01,11,47,23.00
2015,07,01,11,48,23.10
2015,07,01,11,49,23.10
2015,07,01,11,50,23.20
2015,07,01,11,51,23.30
2015,07,01,11,52,23.40
2015,07,01,11,53,23.50
2015,07,01,11,54,23.60
2015,07,01,11,55,23.70
2015,07,01,11,56,23.80
2015,07,01,11,57,24.00
2015,07,01,11,58,24.10
2015,07,01,11,59,24.30
2015,07,01,12,00,24.30
2015,07,01,12,01,24.40
2015,07,01,12,02,24.50
2015,07,01,12,03,24.50
2015,07,01,12,04,24.50
2015,07,01,12,05,24.60
2015,07,01,12,06,24.60
2015,07,01,12,07,24.70
2015,07,01,12,08,24.70
2015,07,01,12,09,24.80
2015,07,01,12,10,24.80
2015,07,01,12,11,24.80
2015,07,01,12,12,24.80
2015,07,01,12,13,24.80
2015,07,01,12,14,24.70
2015,07,01,12,15,24.60
2015,07,01,12,16,24.40
2015,07,01,12,17,24.30
2015,07,01,12,18,24.20
2015,07,01,12,19,24.20
2015,07,01,12,20,24.20
2015,07,01,12,21,24.30
2015,07,01,12,22,24.40
2015,07,01,12,23,24.50
2015,07,01,12,24,24.60
2015,07,01,12,25,24.70
2015,07,01,12,26,24.80
2015,07,01,12,27,24.90
2015,07,01,12,28,25.00
2015,07,01,12,29,25.10
2015,07,01,12,30,25.10
2015,07,01,12,31,25.10
2015,07,01,12,32,25.10
2015,07,01,12,33,25.10
2015,07,01,12,34,25.10
2015,07,01,12,35,25.00
2015,07,01,12,36,24.90
2015,07,01,12,37,24.90
2015,07,01,12,38,24.80
2015,07,01,12,39,24.80
2015,07,01,12,40,24.70
2015,07,01,12,41,24.60
2015,07,01,12,42,24.60
2015,07,01,12,43,24.50
2015,07,01,12,44,24.50
2015,07,01,12,45,24.50
2015,07,01,12,46,24.50
2015,07,01,12,47,24.60
2015,07,01,12,48,24.60
2015,07,01,12,49,24.60
2015,07,01,12,50,24.70
2015,07,01,12,51,24.70
2015,07,01,12,52,24.70
2015,07,01,12,53,24.80
2015,07,01,12,54,24.80
2015,07,01,12,55,24.90
2015,07,01,12,56,24.90
2015,07,01,12,57,24.90
2015,07,01,12,58,24.90
2015,07,01,12,59,25.00
2015,07,01,13,00,25.10
2015,07,01,13,01,25.10
2015,07,01,13,02,25.10
2015,07,01,13,03,25.10
2015,07,01,13,04,25.10
2015,07,01,13,05,25.10
2015,07,01,13,06,25.00
2015,07,01,13,07,24.90
2015,07,01,13,08,24.90
2015,07,01,13,09,24.90
2015,07,01,13,10,24.80
2015,07,01,13,11,24.80
2015,07,01,13,12,24.80
2015,07,01,13,13,24.80
2015,07,01,13,14,24.90
2015,07,01,13,15,24.90
2015,07,01,13,16,25.00
2015,07,01,13,17,25.10
2015,07,01,13,18,25.20
2015,07,01,13,19,25.30
2015,07,01,13,20,25.40
2015,07,01,13,21,25.40
2015,07,01,13,22,25.40
2015,07,01,13,23,25.50
2015,07,01,13,24,25.50
2015,07,01,13,25,25.60
2015,07,01,13,26,25.60
2015,07,01,13,27,25.70
2015,07,01,13,28,25.70
2015,07,01,13,29,25.80
2015,07,01,13,30,25.70
2015,07,01,13,31,25.60
2015,07,01,13,32,25.40
2015,07,01,13,33,25.30
2015,07,01,13,34,25.20
2015,07,01,13,35,25.20
2015,07,01,13,36,25.30
2015,07,01,13,37,25.30
2015,07,01,13,38,25.30
2015,07,01,13,39,25.40
2015,07,01,13,40,25.40
2015,07,01,13,41,25.40
2015,07,01,13,42,25.50
2015,07,01,13,43,25.50
2015,07,01,13,44,25.50
2015,07,01,13,45,25.50
2015,07,01,13,46,25.50
2015,07,01,13,47,25.50
2015,07,01,13,48,25.40
2015,07,01,13,49,25.40
2015,07,01,13,50,25.50
2015,07,01,13,51,25.60
2015,07,01,13,52,25.70
2015,07,01,13,53,25.80
2015,07,01,13,54,25.90
2015,07,01,13,55,25.90
2015,07,01,13,56,26.00
2015,07,01,13,57,26.00
2015,07,01,13,58,26.10
2015,07,01,13,59,26.20
2015,07,01,14,00,26.30
2015,07,01,14,01,26.30
2015,07,01,14,02,26.30
2015,07,01,14,03,26.40
2015,07,01,14,04,26.50
2015,07,01,14,05,26.50
2015,07,01,14,06,26.60
2015,07,01,14,07,26.60
2015,07,01,14,08,26.60
2015,07,01,14,09,26.50
2015,07,01,14,10,26.50
2015,07,01,14,11,26.50
2015,07,01,14,12,26.60
2015,07,01,14,13,26.70
2015,07,01,14,14,26.80
2015,07,01,14,15,26.90
2015,07,01,14,16,27.00
2015,07,01,14,17,27.00
2015,07,01,14,18,27.00
2015,07,01,14,19,27.00
2015,07,01,14,20,27.10
2015,07,01,14,21,27.10
2015,07,01,14,22,27.00
2015,07,01,14,23,26.90
2015,07,01,14,24,26.90
2015,07,01,14,25,26.90
2015,07,01,14,26,27.00
2015,07,01,14,27,27.00
2015,07,01,14,28,27.10
2015,07,01,14,29,27.20
2015,07,01,14,30,27.20
2015,07,01,14,31,27.20
2015,07,01,14,32,27.20
2015,07,01,14,33,27.20
2015,07,01,14,34,27.20
2015,07,01,14,35,27.20
2015,07,01,14,36,27.20
2015,07,01,14,37,27.20
2015,07,01,14,38,27.20
2015,07,01,14,39,27.20
2015,07,01,14,40,27.20
2015,07,01,14,41,27.30
2015,07,01,14,42,27.40
2015,07,01,14,43,27.50
2015,07,01,14,44,27.50
2015,07,01,14,45,27.60
2015,07,01,14,46,27.70
2015,07,01,14,47,27.70
2015,07,01,14,48,27.70
2015,07,01,14,49,27.70
2015,07,01,14,50,27.70
2015,07,01,14,51,27.70
2015,07,01,14,52,27.60
2015,07,01,14,53,27.50
2015,07,01,14,54,27.50
2015,07,01,14,55,27.50
2015,07,01,14,56,27.50
2015,07,01,14,57,27.50
2015,07,01,14,58,27.40
2015,07,01,14,59,27.30
2015,07,01,15,00,27.20
2015,07,01,15,01,27.20
2015,07,01,15,02,27.30
2015,07,01,15,03,27.20
2015,07,01,15,04,27.20
2015,07,01,15,05,27.20
2015,07,01,15,06,27.20
2015,07,01,15,07,27.20
2015,07,01,15,08,27.20
2015,07,01,15,09,27.20
2015,07,01,15,10,27.30
2015,07,01,15,11,27.30
2015,07,01,15,12,27.40
2015,07,01,15,13,27.50
2015,07,01,15,14,27.50
2015,07,01,15,15,27.50
2015,07,01,15,16,27.50
2015,07,01,15,17,27.50
2015,07,01,15,18,27.50
2015,07,01,15,19,27.60
2015,07,01,15,20,27.60
2015,07,01,15,21,27.60
2015,07,01,15,22,27.60
2015,07,01,15,23,27.60
2015,07,01,15,24,27.50
2015,07,01,15,25,27.50
2015,07,01,15,26,27.50
2015,07,01,15,27,27.50
2015,07,01,15,28,27.40
2015,07,01,15,29,27.40
2015,07,01,15,30,27.30
2015,07,01,15,31,27.30
2015,07,01,15,32,27.30
2015,07,01,15,33,27.20
2015,07,01,15,34,27.30
2015,07,01,15,35,27.30
2015,07,01,15,36,27.40
2015,07,01,15,37,27.40
2015,07,01,15,38,27.40
2015,07,01,15,39,27.50
2015,07,01,15,40,27.50
2015,07,01,15,41,27.50
2015,07,01,15,42,27.50
2015,07,01,15,43,27.50
2015,07,01,15,44,27.50
2015,07,01,15,45,27.50
2015,07,01,15,46,27.50
2015,07,01,15,47,27.60
2015,07,01,15,48,27.60
2015,07,01,15,49,27.60
2015,07,01,15,50,27.70
2015,07,01,15,51,27.80
2015,07,01,15,52,27.90
2015,07,01,15,53,27.90
2015,07,01,15,54,28.00
2015,07,01,15,55,28.10
2015,07,01,15,56,28.10
2015,07,01,15,57,28.20
2015,07,01,15,58,28.30
2015,07,01,15,59,28.30
2015,07,01,16,00,28.40
2015,07,01,16,01,28.50
2015,07,01,16,02,28.60
2015,07,01,16,03,28.60
2015,07,01,16,04,28.70
2015,07,01,16,05,28.70
2015,07,01,16,06,28.70
2015,07,01,16,07,28.70
2015,07,01,16,08,28.70
2015,07,01,16,09,28.80
2015,07,01,16,10,28.90
2015,07,01,16,11,28.80
2015,07,01,16,12,28.80
2015,07,01,16,13,28.90
2015,07,01,16,14,28.90
2015,07,01,16,15,28.90
2015,07,01,16,16,28.90
2015,07,01,16,17,28.90
2015,07,01,16,18,28.90
2015,07,01,16,19,28.90
2015,07,01,16,20,28.90
2015,07,01,16,21,28.90
2015,07,01,16,22,28.80
2015,07,01,16,23,28.90
2015,07,01,16,24,28.90
2015,07,01,16,25,28.90
2015,07,01,16,26,28.90
2015,07,01,16,27,28.90
2015,07,01,16,28,28.90
2015,07,01,16,29,29.00
2015,07,01,16,30,29.10
2015,07,01,16,31,29.10
2015,07,01,16,32,29.20
2015,07,01,16,33,29.20
2015,07,01,16,34,29.10
2015,07,01,16,35,29.10
2015,07,01,16,36,29.10
2015,07,01,16,37,29.10
2015,07,01,16,38,29.10
2015,07,01,16,39,29.20
2015,07,01,16,40,29.20
2015,07,01,16,41,29.10
2015,07,01,16,42,29.00
2015,07,01,16,43,28.90
2015,07,01,16,44,28.90
2015,07,01,16,45,28.90
2015,07,01,16,46,28.90
2015,07,01,16,47,28.90
2015,07,01,16,48,28.90
2015,07,01,16,49,28.90
2015,07,01,16,50,29.00
2015,07,01,16,51,29.10
2015,07,01,16,52,29.20
2015,07,01,16,53,29.30
2015,07,01,16,54,29.40
2015,07,01,16,55,29.60
2015,07,01,16,56,29.70
2015,07,01,16,57,29.70
2015,07,01,16,58,29.80
2015,07,01,16,59,29.80
2015,07,01,17,00,29.80
2015,07,01,17,01,29.80
2015,07,01,17,02,29.70
2015,07,01,17,03,29.60
2015,07,01,17,04,29.60
2015,07,01,17,05,29.50
2015,07,01,17,06,29.50
2015,07,01,17,07,29.40
2015,07,01,17,08,29.40
2015,07,01,17,09,29.40
2015,07,01,17,10,29.40
2015,07,01,17,11,29.40
2015,07,01,17,12,29.40
2015,07,01,17,13,29.40
2015,07,01,17,14,29.50
2015,07,01,17,15,29.60
2015,07,01,17,16,29.60
2015,07,01,17,17,29.70
2015,07,01,17,18,29.70
2015,07,01,17,19,29.80